Regional Weather Roundup
Issued by NWS

Home | Current Version | Previous Version | Text Only | Print | Product List | Glossary Off
Versions: 1 2 3 4 5 6 7 8 9 10 11 12 13 14 15 16 17 18 19 20 21 22 23 24 25 26 27 28 29 30 31 32 33 34 35 36 37 38 39 40 41 42 43 44 45 46 47 48 49 50

000
ASUS45 KBOU 271107
RWRCO

WEATHER ROUNDUP FOR COLORADO
NATIONAL WEATHER SERVICE DENVER/BOULDER CO
400 AM MST THU NOV 27 2014

NOTE: "FAIR" INDICATES FEW OR NO CLOUDS BELOW 12000 FEET WITH NO
SIGNIFICANT WEATHER AND/OR OBSTRUCTIONS TO VISIBILITY.

COZ001>005-013-030-031-271200-
...NORTHWEST COLORADO...

CITY           SKY/WX    TMP DP  RH WIND       PRES   REMARKS
CRAIG          PTCLDY    24  21  88 CALM      30.42F
HAYDEN         PTCLDY    27  21  80 SE13      30.41F WCI  16
MEEKER         PTCLDY    22  19  89 NE6       30.45F WCI  14
MOUNT WERNER   NOT AVBL
STEAMBOAT SPGS PTCLDY    25  24  97 CALM      30.43F
WALDEN         PTCLDY    34  18  51 SW12      30.36S WCI  25
$$

COZ006>008-011-271200-
...WEST CENTRAL VALLEYS...

CITY           SKY/WX    TMP DP  RH WIND       PRES   REMARKS
GRAND JUNCTION CLEAR     30  24  78 VRB5      30.46S WCI  25
MONTROSE       PTCLDY    24  20  84 S9        30.51S WCI  14
EAGLE          PTCLDY    21  21 100 CALM      30.51F
RIFLE          PTCLDY    22  20  92 S3        30.50S
DELTA          PTCLDY    28  22  81 CALM      30.50F
NUCLA          PTCLDY    30  23  74 E6        30.52F WCI  24
$$

COZ017>023-064>068-271200-
...SOUTHWEST COLORADO...

CITY           SKY/WX    TMP DP  RH WIND       PRES   REMARKS
DURANGO        PTCLDY    22  18  85 CALM      30.47S
CORTEZ         CLEAR     23  19  85 NE7       30.47F WCI  15
PAGOSA SPRINGS PTCLDY    21  19  92 CALM      30.49S
TELLURIDE      PTCLDY    25  19  77 SE7       30.56S WCI  18
WOLF CREEK PAS CLEAR     32  -9  16 MISG      30.59S
$$

COZ009-010-012-014-032>034-037-058>063-271200-
...CENTRAL COLORADO...

CITY           SKY/WX    TMP DP  RH WIND       PRES   REMARKS
ASPEN          PTCLDY    19  15  84 SW7       30.48S WCI  10
BUENA VISTA    CLEAR     22  17  83 CALM      30.44S
COPPER MTN     PTCLDY    27  14  59 MISG      30.51S
BERTHOUD PASS  NOT AVBL
COTTONWOOD PAS CLEAR     34  18  51 CALM      30.46S
GUNNISON       PTCLDY    16  10  79 CALM      30.57S
KREMMLING      PTCLDY    21  18  86 SE3       30.44F
LEADVILLE      CLEAR     21  11  65 NE14      30.46F WCI   8
MONARCH PASS     N/A     21  18  86 MISG      30.58F
SALIDA         CLEAR     42  22  43 SW12G24   30.49F
SUNLIGHT       CLEAR     27  25  93 CALM      30.53S
WILKERSON PASS MOCLDY    28   3  34 W10G17    30.47F WCI  19
$$

COZ069>075-271200-
...SAN LUIS VALLEY/SANGRE DE CRISTO MOUNTAINS...

CITY           SKY/WX    TMP DP  RH WIND       PRES   REMARKS
ALAMOSA        PTCLDY    14  10  84 NW5       30.49S WCI   6
LA VETA PASS   PTCLDY    30  18  59 S17G28    30.46S WCI  18
SAGUACHE       CLEAR     28  21  74 NW15      30.50S WCI  17
$$

COZ035-036-038>040-271200-
...NORTHERN COLORADO FRONT RANGE...

CITY           SKY/WX    TMP DP  RH WIND       PRES   REMARKS
DENVER INTL AP MOCLDY    35  24  64 SW12      30.22F WCI  27
DMNS CITY PARK   N/A     35  24  62 S3        30.23F
AURORA         PTCLDY    39  22  49 SW8       30.25F
FRONT RANGE AP MOCLDY    32  28  86 S13       30.23F WCI  22
ERIE MUNI ARPT CLOUDY    22  20  93 CALM      30.22F
BOULDER MUN AP CLOUDY    30  27  86 N6        30.20F WCI  24
CENTENNIAL     CLOUDY    40  21  46 S8        30.25F
BROOMFIELD     CLOUDY    46  19  34 SW9G17    30.24S
FORT COLLINS   PTCLDY    19  18  93 S3        30.23F
LONGMONT       PTCLDY    24  21  91 W5        30.24F WCI  18
$$

COZ041-046-047-076>085-087-088-271200-
...PIKES PEAK/PALMER DIVIDE AND SOUTHERN FOOTHILLS...

CITY           SKY/WX    TMP DP  RH WIND       PRES   REMARKS
COLO. SPRINGS  CLOUDY    37  23  56 N8        30.29F
A. F. ACADEMY  CLOUDY    28  21  72 N7        30.29F WCI  21
ELLICOTT       NOT AVBL
FALCON         NOT AVBL
FORT CARSON    MOCLDY    29  23  78 NW6       30.26F WCI  22
LIMON          CLOUDY    19  16  88 CALM      30.27F
MONUMENT HILL  CLOUDY    37  16  41 SW12      30.29S
TRINIDAD       PTCLDY    36  22  56 W15       30.31S
$$

COZ042>045-048>051-090-091-271200-
...NORTHEAST COLORADO...

CITY           SKY/WX    TMP DP  RH WIND       PRES   REMARKS
GREELEY ARPT   MOCLDY    21  16  79 SE3       30.24F
AKRON          MOCLDY    28  25  88 W14       30.23F WCI  17
BURLINGTON     CLEAR     25  18  74 SW14      30.27F WCI  13
WRAY           PTCLDY    21  19  93 CALM      30.27S
STERLING       MOCLDY    25  23  93 S7        30.24S WCI  17
HOLYOKE        PTCLDY    21  19  93 W6        30.25F WCI  14
FORT MORGAN    MOCLDY    23  21  92 W10       30.24S WCI  12
$$

COZ086-089-092>099-271200-
...SOUTHEAST COLORADO...

CITY           SKY/WX    TMP DP  RH WIND       PRES   REMARKS
PUEBLO         PTCLDY    22  18  85 CALM      30.30F
LA JUNTA       PTCLDY    23  19  85 W9        30.32F WCI  13
LAMAR          MOCLDY    18  16  92 SW6       30.31F WCI  10
SPRINGFIELD      N/A     25  21  85 SW7       30.31F WCI  17
$$


USA.gov is the U.S. government's official web portal to all federal, state and local government web resources and services.